sat.trackr.live / text

‹ back to catalog

STARLINK-36766

NORAD 68069 · 2026-042A

PAYLOAD ACTIVE UNKNOWN

§ Identity

Operator
Country
US
Launch date
2026-03-04
Launch site
AFETR
Launch vehicle
Mass (kg)
RCS (m²)

Purposes: comms

External: N2YO · Heavens-Above · Gunter

§ Orbital elements

Epoch: 2026-05-25T03:11:27.039840Z

Period
93.85 min
Inclination
53.1584°
Eccentricity
0.0001219
Mean motion
15.34404244 rev/d
Perigee alt
461.9 km
Apogee alt
463.5 km
Semi-major
6,840.8 km
B*
4.0578e-4
RAAN
183.3285°
Arg perigee
89.6784°
Mean anomaly
270.4358°
Rev number
1,401

§ Raw data

STARLINK-367661 68069U 26042A   26145.13295185  .00013360  00000+0  40578-3 0  99942 68069  53.1584 183.3285 0001219  89.6784 270.4358 15.34404244 14018

JSON: /api/v1/satellites/68069 · /tle

For live sub-satellite position, see the globe view (requires WebGL).

§ Visibility from observer

Set your observer location to see the next 7 days of passes ≥ 10°. The values pass through the URL so the page stays shareable.

No JS? Fill the form by hand. The geolocation button needs JavaScript.